Weather in Malaya Cherga

Russia / Altai Republic     51°20′35″N   85°33′11″E
temp.,
°C
wind,
m/s
gust,
m/s
humid.,
%
clouds,
%
prec.,
mm/h
press.,
hPa
HPBL,
m
18 april, sun
sun1801:000ese019076 0.1 1020130
04:00−3sw119836 0.0 102110
07:00−1wsw128996 0.0 1020201
10:00+5sw25493 0.0 10161232
13:00+7wsw47295 0.0 10142004
16:00+8w472912 0.0 10132355
19:00+6wsw364319 0.0 1013936
22:00+3ssw613587 0.0 1015777
19 april, mon
mon1901:00+4ssw61559100 0.0 1012973
04:00+4ssw5155513 0.0 1009760
07:00+4sw7176073 0.0 10081551
10:00+4w3785100 0.8 1009908
13:000n3389100 4.4 1015671
16:00−3nne3384100 2.0 1018725
19:00−6nne3491100 3.4 1020495
22:00−7nne2494100 0.9 1021394
20 april, tue
tue2001:00−8nne2393100 1.8 1021359
04:00−9nne2394100 0.4 1022308
07:00−10nne2391100 0.9 1023395
10:00−9nne2278100 0.3 1023817
13:00−7n3273100 0.4 10221023
16:00−6nne3372100 0.3 10221166
19:00−8nne3484100 0.6 1024815
22:00−12n139877 0.2 1028105
21 april, wed
wed2101:00−15s119740 0.2 102910
04:00−15s119711 0.0 102811
07:00−14s11915 0.0 102731
10:00−6nw01615 0.0 1023704
13:00−3n225238 0.0 10191292
16:00−2n3253100 0.0 10181285
19:00−6nne3483100 0.2 1022574
22:00−8n2392100 0.2 1024353
22 april, thu
thu2201:00−9n1293100 0.9 1025276
04:00−9n1293100 0.8 1026244
07:00−9n1293100 1.1 1028258
10:00−7n2379100 0.3 1028872
13:00−5nne3477100 0.8 10291195
16:00−4nne4470100 0.4 10301288
19:00−5nne3678100 0.7 1033854
22:00−7nnw1397100 0.4 1035219